Location: Carthage
(33.8834°N, 106.6595°W)
Time: 02:45:55
(UTC+00:00)

Cosmos 2322 Rocket - Pass Details

Date: 24 May 2026
Orbit: 831 x 850 km, 71.0° (Epoch: 9 June)

Event Time Altitude Azimuth Distance (km) Brightness Sun altitude
Rises 03:04:12 0° 343° (NNW) 3,408 6.2 -11.1°
Reaches altitude 10° 03:06:42 10° 348° (NNW) 2,472 5.4 -11.5°
Maximum altitude 03:12:18 58° 67° (ENE) 981 2.4 -12.5°
Enters shadow 03:16:37 17° 143° (SE) 2,008 3.6 -13.2°
